Regional Weather Roundup
Issued by NWS

Home | Current Version | Previous Version | Text Only | Print | Product List | Glossary Off
Versions: 1 2 3 4 5 6 7 8 9 10 11 12 13 14 15 16 17 18 19 20 21 22 23 24 25 26 27 28 29 30 31 32 33 34 35 36 37 38 39 40 41 42 43 44 45 46 47 48 49 50

000
ASUS43 KOAX 171410
RWRNE

WEATHER ROUNDUP FOR NEBRASKA
NATIONAL WEATHER SERVICE OMAHA NE
900 AM CDT THU AUG 17 2017

NOTES: SATELLITE DATA IS BEING USED TO AUGMENT CLOUD COVER ABOVE
       12000 FEET.
       "FAIR" INDICATES FEW OR NO CLOUDS BELOW 12,000 FEET WITH NO
       SIGNIFICANT WEATHER AND/OR OBSTRUCTIONS TO VISIBILITY.


NEZ001>004-019>022-054>056-171500-
NEBRASKA PANHANDLE

CITY           SKY/WX    TMP DP  RH WIND       PRES   REMARKS
SCOTTSBLUFF    SUNNY     59  52  77 E8        30.06S
ALLIANCE       SUNNY     61  56  83 S6        30.06S
CHADRON        CLOUDY    62  54  74 CALM      30.00S
GORDON         FAIR      60  53  77 SW3       30.03S
KIMBALL        SUNNY     59  53  79 SW3       30.13S
SIDNEY         SUNNY     63  56  78 S10       30.12S
$$

NEZ057>060-069>072-079>082-171500-
SOUTHWEST NEBRASKA

CITY           SKY/WX    TMP DP  RH WIND       PRES   REMARKS
NORTH PLATTE   SUNNY     62  57  83 W6        30.08S
IMPERIAL       SUNNY     61  55  81 SW8       30.11R
LEXINGTON      SUNNY     61  56  84 W3        30.05F
MCCOOK         SUNNY     61  58  90 W10       30.09R
OGALLALA       SUNNY     58  56  94 W5        30.09S
$$

NEZ005>010-023>029-035>040-094-171500-
NORTH CENTRAL NEBRASKA

CITY           SKY/WX    TMP DP  RH WIND       PRES   REMARKS
VALENTINE      SUNNY     59  51  75 SW5       30.01S
AINSWORTH      SUNNY     62  55  77 CALM      30.02S
BROKEN BOW     SUNNY     61  54  77 SW5       30.04R
O`NEILL        SUNNY     62  54  75 W6        30.00S
ORD            SUNNY     62  55  77 W6        30.00S
THEDFORD       SUNNY     64  56  75 W8        30.05S
$$

NEZ041-046>049-061>064-073>077-083>087-171500-
SOUTH CENTRAL NEBRASKA

CITY           SKY/WX    TMP DP  RH WIND       PRES   REMARKS
GRAND ISLAND   SUNNY     62  58  86 W12       30.02R
AURORA         SUNNY     62  59  91 W7        30.01R
HASTINGS       SUNNY     63  57  81 W8        30.04S
HEBRON         SUNNY     66  61  84 NW5       30.01S
HOLDREGE       SUNNY     64  57  79 CALM      30.05S
KEARNEY        SUNNY     64  57  78 W3        30.04S
YORK           SUNNY     63  59  88 W8        30.00S
$$

NEZ011>018-030>034-042>045-171500-
NORTHEAST NEBRASKA

CITY           SKY/WX    TMP DP  RH WIND       PRES   REMARKS
NORFOLK        SUNNY     63  56  78 W10       29.94R
ALBION         SUNNY     64  58  80 NW5       29.99S
BLAIR          RAIN      65  60  85 W10G17    29.91S
COLUMBUS       SUNNY     64  57  78 W12       29.97S
FREMONT        SUNNY     65  60  81 W12       29.94R
TEKAMAH        SUNNY     68  59  73 NW13      29.90S
WAYNE          SUNNY     65  62  87 W14       29.93S
$$

NEZ050>053-065>068-078-088>093-171500-
SOUTHEAST NEBRASKA

CITY           SKY/WX    TMP DP  RH WIND       PRES   REMARKS
LINCOLN        SUNNY     69  59  70 NW10      29.96S
OMAHA EPPLEY   MOSUNNY   69  59  70 NW17      29.90S
BEATRICE       SUNNY     65  61  86 W9        29.98R
FALLS CITY     SUNNY     68  62  81 NW13      29.92S
NEBRASKA CITY  SUNNY     67  64  90 NW14      29.93S
PLATTSMOUTH    SUNNY     67  60  78 W14       29.91F
$$

NEZ044-045-051>053-067-171500-
OMAHA AREA

CITY           SKY/WX    TMP DP  RH WIND       PRES   REMARKS
OMAHA EPPLEY   MOSUNNY   69  59  70 NW17      29.90S
BLAIR          RAIN      65  60  85 W10G17    29.91S
FREMONT        SUNNY     65  60  81 W12       29.94R
MILLARD        SUNNY     69  61  75 NW9G17    29.92S
OFFUTT AFB     SUNNY     69  59  69 NW14      29.90S
PLATTSMOUTH    SUNNY     67  60  78 W14       29.91F
WAHOO          FAIR      67  61  80 W13       29.94S
$$




USA.gov is the U.S. government's official web portal to all federal, state and local government web resources and services.